| time (UTC) | temp F | wind direction | speed MPH | gust MPH | rain 1hr in | rain 24hr in | rain mn in | humidity % | barometer mb |
| 20260506072039 | 63 | 255 | 0.0 | 0.0 | 0.00 | 0.02 | 0.00 | 72 | 1007.5 |
| 20260506070538 | 63 | 255 | 0.0 | 0.0 | 0.00 | 0.02 | 0.00 | 70 | 1007.6 |
| 20260506062042 | 64 | 236 | 1.0 | 3.0 | 0.00 | 0.02 | 0.00 | 69 | 1007.8 |
| 20260506060538 | 64 | 244 | 1.0 | 2.0 | 0.00 | 0.02 | 0.00 | 68 | 1008.0 |
| 20260506050546 | 65 | 258 | 1.0 | 8.0 | 0.00 | 0.02 | 0.00 | 66 | 1008.2 |
| 20260506045040 | 65 | 228 | 2.0 | 4.0 | 0.00 | 0.02 | 0.00 | 65 | 1008.5 |
| 20260506043538 | 65 | 253 | 1.0 | 4.0 | 0.00 | 0.02 | 0.00 | 65 | 1008.3 |
| 20260506042032 | 66 | 212 | 1.0 | 4.0 | 0.00 | 0.02 | 0.00 | 64 | 1008.3 |
| 20260506040531 | 66 | 250 | 2.0 | 8.0 | 0.00 | 0.02 | 0.00 | 63 | 1008.3 |
| 20260506035045 | 67 | 243 | 1.0 | 10.0 | 0.00 | 0.02 | 0.02 | 61 | 1008.3 |
| 20260506033539 | 67 | 198 | 3.0 | 7.0 | 0.00 | 0.02 | 0.02 | 59 | 1008.3 |
| 20260506032029 | 67 | 211 | 3.0 | 7.0 | 0.00 | 0.02 | 0.02 | 60 | 1008.1 |
| 20260506030526 | 68 | 257 | 2.0 | 4.0 | 0.00 | 0.02 | 0.02 | 58 | 1008.2 |
| 20260506025030 | 68 | 251 | 2.0 | 6.0 | 0.00 | 0.02 | 0.02 | 57 | 1008.2 |
| 20260506023540 | 68 | 234 | 3.0 | 9.0 | 0.00 | 0.02 | 0.02 | 57 | 1008.2 |
| 20260506022034 | 69 | 269 | 3.0 | 9.0 | 0.00 | 0.02 | 0.02 | 56 | 1008.2 |
| 20260506020534 | 69 | 240 | 1.0 | 5.0 | 0.00 | 0.02 | 0.02 | 54 | 1008.2 |
| 20260506015045 | 70 | 231 | 0.0 | 4.0 | 0.00 | 0.02 | 0.02 | 54 | 1008.2 |
| 20260506013605 | 70 | 141 | 1.0 | 4.0 | 0.00 | 0.02 | 0.02 | 53 | 1007.9 |
| 20260506012040 | 70 | 209 | 2.0 | 8.0 | 0.00 | 0.02 | 0.02 | 53 | 1007.7 |
| 20260506010545 | 71 | 257 | 3.0 | 8.0 | 0.00 | 0.02 | 0.02 | 53 | 1007.5 |
| 20260506005103 | 71 | 268 | 2.0 | 9.0 | 0.00 | 0.02 | 0.02 | 53 | 1007.4 |
| 20260506003541 | 72 | 314 | 1.0 | 5.0 | 0.00 | 0.02 | 0.02 | 51 | 1007.3 |
| 20260506002045 | 73 | 284 | 1.0 | 5.0 | 0.00 | 0.02 | 0.02 | 49 | 1007.1 |
| 20260506000533 | 74 | 288 | 3.0 | 8.0 | 0.00 | 0.02 | 0.02 | 47 | 1007.0 |
| 20260505235045 | 74 | 215 | 2.0 | 5.0 | 0.00 | 0.02 | 0.02 | 48 | 1006.9 |
| 20260505233527 | 75 | 257 | 2.0 | 5.0 | 0.00 | 0.02 | 0.02 | 46 | 1006.7 |
| 20260505232053 | 76 | 266 | 2.0 | 8.0 | 0.00 | 0.02 | 0.02 | 46 | 1006.8 |
| 20260505230554 | 76 | 257 | 3.0 | 9.0 | 0.00 | 0.02 | 0.02 | 44 | 1006.7 |
| 20260505225044 | 77 | 265 | 5.0 | 8.0 | 0.00 | 0.02 | 0.02 | 43 | 1006.4 |
| 20260505223542 | 77 | 247 | 2.0 | 7.0 | 0.00 | 0.02 | 0.02 | 45 | 1006.4 |
| 20260505222041 | 77 | 280 | 2.0 | 7.0 | 0.00 | 0.02 | 0.02 | 46 | 1006.3 |
| 20260505220543 | 78 | 26 | 4.0 | 13.0 | 0.00 | 0.02 | 0.02 | 42 | 1006.1 |
| 20260505215040 | 78 | 116 | 5.0 | 11.0 | 0.00 | 0.02 | 0.02 | 41 | 1006.2 |
| 20260505213539 | 79 | 243 | 4.0 | 11.0 | 0.00 | 0.02 | 0.02 | 41 | 1006.1 |
| 20260505212042 | 79 | 232 | 7.0 | 12.0 | 0.00 | 0.02 | 0.02 | 40 | 1006.0 |
| 20260505210541 | 80 | 297 | 3.0 | 16.0 | 0.00 | 0.02 | 0.02 | 40 | 1006.1 |
| 20260505205053 | 80 | 141 | 5.0 | 15.0 | 0.00 | 0.02 | 0.02 | 41 | 1005.9 |
| 20260505203554 | 81 | 112 | 3.0 | 13.0 | 0.00 | 0.02 | 0.02 | 40 | 1005.8 |
| 20260505202032 | 81 | 115 | 3.0 | 11.0 | 0.00 | 0.02 | 0.02 | 39 | 1005.8 |
| 20260505200558 | 82 | 278 | 2.0 | 11.0 | 0.00 | 0.02 | 0.02 | 35 | 1005.9 |
| 20260505195115 | 82 | 254 | 6.0 | 11.0 | 0.00 | 0.02 | 0.02 | 33 | 1006.1 |
| 20260505193553 | 82 | 339 | 3.0 | 14.0 | 0.00 | 0.02 | 0.02 | 34 | 1006.1 |
| 20260505192034 | 82 | 218 | 7.0 | 14.0 | 0.00 | 0.02 | 0.02 | 34 | 1006.4 |
| 20260505190538 | 81 | 259 | 4.0 | 17.0 | 0.00 | 0.02 | 0.02 | 34 | 1006.5 |
| 20260505185030 | 82 | 340 | 5.0 | 16.0 | 0.00 | 0.02 | 0.02 | 35 | 1006.6 |
| 20260505183554 | 81 | 292 | 5.0 | 13.0 | 0.00 | 0.02 | 0.02 | 32 | 1007.0 |
| 20260505182052 | 81 | 270 | 5.0 | 18.0 | 0.00 | 0.02 | 0.02 | 37 | 1006.9 |
| 20260505180556 | 81 | 346 | 3.0 | 18.0 | 0.00 | 0.02 | 0.02 | 38 | 1007.3 |
| 20260505175036 | 81 | 295 | 5.0 | 10.0 | 0.00 | 0.02 | 0.02 | 44 | 1007.6 |
| 20260505173534 | 81 | 136 | 4.0 | 11.0 | 0.00 | 0.02 | 0.02 | 44 | 1007.6 |
| 20260505172035 | 81 | 217 | 3.0 | 11.0 | 0.00 | 0.02 | 0.02 | 46 | 1007.7 |
| 20260505170537 | 80 | 285 | 2.0 | 11.0 | 0.00 | 0.02 | 0.02 | 46 | 1007.8 |
| 20260505165113 | 79 | 76 | 4.0 | 10.0 | 0.00 | 0.02 | 0.02 | 48 | 1008.1 |
| 20260505163549 | 79 | 258 | 8.0 | 13.0 | 0.00 | 0.02 | 0.02 | 48 | 1008.1 |
| 20260505162046 | 78 | 254 | 3.0 | 10.0 | 0.00 | 0.02 | 0.02 | 47 | 1008.3 |
| 20260505160541 | 77 | 253 | 6.0 | 13.0 | 0.00 | 0.02 | 0.02 | 51 | 1008.5 |
| 20260505152042 | 76 | 259 | 2.0 | 11.0 | 0.00 | 0.02 | 0.02 | 52 | 1008.8 |
| 20260505150535 | 76 | 236 | 2.0 | 8.0 | 0.00 | 0.02 | 0.02 | 55 | 1009.0 |
| 20260505140550 | 72 | 330 | 2.0 | 7.0 | 0.00 | 0.02 | 0.02 | 63 | 1009.7 |
| 20260505123543 | 59 | 315 | 3.0 | 5.0 | 0.00 | 0.02 | 0.02 | 90 | 1009.6 |
| 20260505122043 | 58 | 262 | 1.0 | 3.0 | 0.00 | 0.02 | 0.02 | 94 | 1009.6 |
| 20260505120544 | 57 | 207 | 1.0 | 4.0 | 0.00 | 0.02 | 0.02 | 95 | 1009.7 |
| 20260505115037 | 56 | 341 | 0.0 | 3.0 | 0.00 | 0.02 | 0.02 | 95 | 1009.4 |
| 20260505113535 | 54 | 182 | 0.0 | 0.0 | 0.00 | 0.02 | 0.02 | 95 | 1009.2 |
| 20260505112100 | 53 | 181 | 0.0 | 0.0 | 0.00 | 0.02 | 0.02 | 94 | 1009.3 |
| 20260505110610 | 53 | 181 | 0.0 | 0.0 | 0.00 | 0.02 | 0.02 | 93 | 1009.2 |
| 20260505102033 | 54 | 238 | 0.0 | 1.0 | 0.00 | 0.02 | 0.02 | 91 | 1009.2 |
| 20260505100536 | 54 | 238 | 0.0 | 3.0 | 0.01 | 0.02 | 0.02 | 90 | 1008.7 |
| 20260505095052 | 55 | 223 | 0.0 | 0.0 | 0.02 | 0.02 | 0.02 | 91 | 1008.4 |
| 20260505093554 | 55 | 213 | 0.0 | 3.0 | 0.02 | 0.02 | 0.02 | 90 | 1008.5 |
| 20260505092052 | 54 | 337 | 0.0 | 2.0 | 0.02 | 0.02 | 0.02 | 88 | 1009.0 |
| 20260505090559 | 54 | 243 | 0.0 | 3.0 | 0.01 | 0.01 | 0.01 | 86 | 1009.8 |
| 20260505085027 | 53 | 215 | 0.0 | 1.0 | 0.00 | 0.00 | 0.00 | 81 | 1009.6 |
| 20260505083551 | 53 | 215 | 0.0 | 0.0 | 0.00 | 0.00 | 0.00 | 78 | 1009.0 |
| 20260505082051 | 54 | 215 | 0.0 | 0.0 | 0.00 | 0.00 | 0.00 | 77 | 1008.8 |
| 20260505080551 | 54 | 215 | 0.0 | 0.0 | 0.00 | 0.00 | 0.00 | 77 | 1008.5 |